Oakland, CA

1:29 AM PST on December 11, 2019 (GMT -0800)
Metro Oakland International

Weather History for KOAK - October, 2019

Change the Weather History Date:

Tuesday, October 22, 2019

  Actual Average Record
Temperature  
Mean Temperature 67 °F 60 °F  
Max Temperature 83 °F 69 °F 84 °F (2011)
Min Temperature 50 °F 51 °F 40 °F (1949)
Degree Days  
Heating Degree Days 0 6  
Month to date heating degree days 90 93  
Since 1 July heating degree days 120 293  
Cooling Degree Days 2 0  
Month to date cooling degree days 12 12  
Year to date cooling degree days 376 137  
Growing Degree Days 18 (Base 50)    
Moisture  
Dew Point 48 °F    
Average Humidity 53    
Maximum Humidity 77    
Minimum Humidity 28    
Precipitation  
Precipitation 0.00 in 0.03 in 0.45 in (1973)
Month to date precipitation T 0.65  
Year to date precipitation 15.94 14.15  
Sea Level Pressure  
Sea Level Pressure 30.13 in    
Wind  
Wind Speed 4 mph (NW)    
Max Wind Speed 13 mph    
Max Gust Speed 14 mph    
Visibility 10 miles    
Events      
T = Trace of Precipitation, MM = Missing Value Source: NWS Daily Summary

Daily Weather History Graph

Daily Weather History Graph

Search for Another Location

Airport or City:

Astronomy

Oct. 22, 2019 Rise Set
Actual Time 7:23 AM PDT 6:22 PM PDT
Civil Twilight 6:57 AM PDT 6:48 PM PDT
Nautical Twilight 6:26 AM PDT 7:19 PM PDT
Astronomical Twilight 5:56 AM PDT 7:49 PM PDT
Moon 12:48 AM PDT (10/22) 3:27 PM PDT (10/22)
Length of Visible Light 11h 51m
Length of Day
10h 58m
Last Quarter, 36% of the Moon is Illuminated
Oct 22
Last Quarter
Oct 27
New
Nov 4
First Quarter
Nov 12
Full
Nov 19
Last Quarter

Hourly Weather History & Observations

Time (PDT) Temp. Dew Point Humidity Pressure Visibility Wind Dir Wind Speed Gust Speed Precip Events Conditions
12:53 AM 57.0 °F 50.0 °F 77% 30.17 in 10.0 mi Calm Calm - N/A   Clear
1:53 AM 55.9 °F 46.9 °F 72% 30.18 in 10.0 mi Calm Calm - N/A   Clear
2:53 AM 54.0 °F 46.9 °F 77% 30.18 in 10.0 mi NE 4.6 mph - N/A   Clear
3:53 AM 55.9 °F 48.0 °F 75% 30.18 in 10.0 mi Calm Calm - N/A   Clear
4:53 AM 54.0 °F 45.0 °F 72% 30.18 in 10.0 mi Calm Calm - N/A   Clear
5:53 AM 54.0 °F 45.0 °F 72% 30.19 in 10.0 mi Calm Calm - N/A   Clear
6:53 AM 53.1 °F 45.0 °F 74% 30.19 in 10.0 mi NE 3.5 mph - N/A   Clear
7:53 AM 54.0 °F 46.0 °F 75% 30.20 in 10.0 mi Calm Calm - N/A   Partly Cloudy
8:53 AM 64.0 °F 52.0 °F 65% 30.21 in 10.0 mi Calm Calm - N/A   Partly Cloudy
10:53 AM 71.1 °F 54.0 °F 55% 30.19 in 10.0 mi WNW 6.9 mph - N/A   Partly Cloudy
11:53 AM 75.9 °F 46.0 °F 35% 30.19 in 10.0 mi WNW 11.5 mph - N/A   Partly Cloudy
12:53 PM 79.0 °F 46.0 °F 31% 30.17 in 10.0 mi WNW 9.2 mph - N/A   Partly Cloudy
1:53 PM 81.0 °F 46.0 °F 29% 30.13 in 10.0 mi NW 9.2 mph - N/A   Partly Cloudy
2:53 PM 82.0 °F 46.0 °F 28% 30.10 in 10.0 mi WNW 10.4 mph - N/A   Partly Cloudy
3:53 PM 80.1 °F 52.0 °F 38% 30.09 in 10.0 mi West 9.2 mph - N/A   Partly Cloudy
4:53 PM 80.1 °F 48.9 °F 34% 30.07 in 10.0 mi WNW 9.2 mph - N/A   Partly Cloudy
5:53 PM 77.0 °F 46.9 °F 34% 30.06 in 10.0 mi NW 8.1 mph - N/A   Partly Cloudy
6:53 PM 73.0 °F 44.1 °F 35% 30.05 in 10.0 mi NW 5.8 mph - N/A   Partly Cloudy
7:53 PM 71.1 °F 45.0 °F 39% 30.06 in 10.0 mi NNW 3.5 mph - N/A   Partly Cloudy
8:53 PM 64.0 °F 45.0 °F 50% 30.06 in 10.0 mi Calm Calm - N/A   Clear
9:53 PM 62.1 °F 45.0 °F 53% 30.06 in 10.0 mi Calm Calm - N/A   Clear
10:53 PM 64.9 °F 55.9 °F 73% 30.06 in 10.0 mi West 4.6 mph - N/A   Clear
11:53 PM 57.9 °F 50.0 °F 75% 30.05 in 10.0 mi Calm Calm - N/A   Clear